Location: Newark
(49.1939°N, 0.8136°E)
Time: 02:10:35
(UTC+00:00)

Envisat - Pass Details

Date: 28 November 2019
Orbit: 764 x 766 km, 98.1° (Epoch: 13 December)

Event Time Altitude Azimuth Distance (km) Brightness Sun altitude
Rises 18:22:02 0° 183° (S) 3,220 6.4 -22.0°
Reaches altitude 10° 18:24:26 10° 190° (S) 2,298 5.7 -22.4°
Maximum altitude 18:29:15 43° 262° (W) 1,064 4.2 -23.1°
Drops below altitude 10° 18:34:06 10° 334° (NNW) 2,314 5.7 -23.9°
Sets 18:36:32 0° 341° (NNW) 3,244 6.4 -24.3°
